Wind_Speed
9 8 9 9 10 10 11 11 12 13 14 14 14 14 14 13 12 12 12 12 11 10 9 8 8 7 6 6 6 7 8 9 11 12 13 14 15 17 19 19 21 22 22
9 9 9 10 11 11 11 12 12 13 14 14 14 14 14 13 12 12 12 12 11 10 9 8 8 8 7 7 7 7 8 9 10 11 12 14 15 17 18 19 20 22 23
9 9 10 10 11 11 12 12 13 14 14 14 14 14 14 13 13 12 11 11 11 11 10 9 8 8 8 8 8 8 8 9 10 11 12 13 15 16 18 19 19 21 23
9 10 10 11 12 12 13 14 14 15 15 15 15 14 14 14 13 13 12 11 11 11 10 9 9 8 8 8 8 8 8 9 10 12 13 14 15 16 17 18 19 20 22
10 10 11 12 12 13 14 15 15 15 15 15 15 15 15 14 14 14 13 11 11 11 10 10 10 9 10 10 10 10 10 10 11 12 13 14 15 16 16 17 18 20 21
11 12 12 13 14 15 16 16 16 16 16 16 16 16 16 15 15 15 14 12 11 11 11 11 11 11 11 12 11 11 11 11 12 12 14 15 16 16 17 18 18 20 21
13 14 15 15 16 17 17 18 18 18 18 18 18 18 17 17 17 16 16 14 13 12 12 12 12 13 13 13 13 12 12 13 13 14 14 15 16 16 17 18 19 20 22
16 16 17 18 18 18 19 19 19 19 19 19 19 19 19 19 19 18 17 16 15 14 14 14 14 14 15 15 14 14 14 14 15 15 16 16 16 17 18 18 19 21 22
18 18 19 19 20 20 21 21 21 21 21 21 21 21 21 20 20 20 19 18 17 17 16 16 16 17 16 16 16 16 16 16 16 17 17 18 18 18 19 20 21 21 23
20 21 21 22 22 23 23 23 23 23 23 23 23 23 22 22 22 21 21 20 19 19 19 19 19 19 18 18 18 18 18 18 18 18 19 19 20 21 21 21 22 22 23
23 23 23 24 24 25 25 25 25 26 26 26 26 25 24 24 24 23 23 22 21 21 20 21 21 21 21 21 21 20 20 20 20 20 21 21 21 22 23 23 24 24 24
24 25 26 26 27 27 27 27 28 28 28 28 28 27 27 26 26 26 25 24 24 23 23 23 23 24 24 23 23 23 23 23 23 23 22 23 23 23 24 24 25 25 25
26 27 28 29 29 30 30 30 31 30 30 30 30 30 29 29 28 28 27 26 26 26 26 26 26 26 26 26 26 26 25 25 25 25 24 24 25 25 25 25 25 26 26
29 30 31 31 32 32 32 33 33 33 33 33 33 32 31 31 30 30 29 29 29 29 29 29 30 29 29 29 28 28 28 28 27 27 26 26 26 26 27 26 26 27 27
31 32 33 33 33 33 34 34 35 35 36 35 35 35 34 33 32 32 32 32 32 32 32 32 32 32 31 31 30 30 30 30 30 30 29 29 29 28 29 29 29 29 29
33 34 34 34 34 35 35 36 37 38 38 37 37 36 36 35 35 35 35 35 35 34 34 34 33 33 33 33 33 33 33 33 33 33 32 31 31 31 31 31 31 31 31
35 36 36 37 37 38 38 39 39 39 39 39 39 38 38 38 37 37 37 36 36 36 35 35 35 34 35 34 34 34 34 34 34 35 34 34 34 34 33 33 33 32 32
38 38 39 40 40 41 42 42 42 41 41 40 40 40 40 39 39 38 37 38 38 37 37 36 36 36 36 36 35 35 35 35 35 36 35 35 35 35 35 35 34 33 33
41 42 42 42 43 43 44 44 43 43 43 42 41 41 41 40 39 39 38 39 39 38 38 38 38 37 37 37 36 36 36 36 36 36 36 36 35 35 35 36 35 34 34
44 44 45 45 45 45 45 45 45 45 44 44 43 43 42 42 41 40 40 40 40 40 39 39 39 39 38 37 36 36 36 36 36 36 35 36 35 35 35 35 35 35 34
46 46 47 47 47 47 47 47 47 46 46 45 44 44 44 43 42 42 41 41 41 40 40 39 39 39 38 37 36 36 36 36 35 35 36 36 36 34 34 34 34 34 34
48 48 48 48 48 48 48 48 48 47 47 46 46 45 45 45 44 43 43 42 41 41 40 40 39 39 39 38 37 37 36 35 35 35 35 35 36 35 33 33 34 34 34
49 49 49 49 49 49 49 49 48 48 47 47 46 46 46 46 45 44 43 42 40 40 40 40 39 39 38 38 37 37 36 36 36 35 34 33 34 34 32 32 33 33 34
50 50 51 50 50 50 50 49 49 49 48 47 47 46 46 46 45 45 43 42 41 40 39 39 38 38 37 37 37 36 36 36 35 34 34 33 33 33 32 32 32 33 33
51 51 51 50 50 50 50 49 49 48 48 47 46 46 46 45 45 44 43 42 41 40 39 39 38 37 37 36 36 36 36 35 35 34 34 34 34 34 33 32 33 33 33
51 51 51 51 50 50 50 49 48 48 47 46 46 45 45 44 43 43 42 41 40 40 39 38 38 38 37 36 36 36 35 35 35 34 34 34 34 35 34 33 33 33 33
Wind_Direction
302 305 310 315 319 321 324 327 328 328 329 331 332 333 333 332 329 327 326 327 326 325 321 315 308 304 299 289 275 263 253 247 244 240 238 237 235 233 232 233 232 232 231
301 304 309 314 316 317 320 324 326 327 328 327 329 331 332 331 328 325 324 324 324 320 317 316 311 303 299 292 284 272 261 253 247 243 241 241 238 235 234 234 234 234 232
301 303 307 311 314 317 319 321 324 325 326 325 326 328 329 330 329 324 321 320 319 318 314 310 310 305 299 294 288 278 266 257 251 248 247 247 243 239 238 237 237 236 233
298 302 305 310 314 317 319 320 321 322 323 323 323 324 325 325 325 324 319 317 316 313 310 306 304 301 296 292 290 280 271 262 256 253 252 250 247 244 242 240 239 238 237
296 301 304 308 312 314 315 317 318 318 319 319 319 319 320 321 321 322 319 315 313 309 306 304 300 296 293 290 289 282 274 268 262 258 254 252 250 247 244 243 241 240 239
298 299 302 305 308 312 313 314 315 315 314 315 316 314 314 315 316 317 317 313 309 306 303 300 297 295 292 288 288 283 276 270 266 262 257 253 252 250 248 247 245 243 241
295 297 299 302 305 307 308 309 309 311 311 311 310 310 309 309 309 310 310 306 305 302 299 296 293 293 291 288 284 281 278 273 268 264 259 255 253 252 251 250 249 245 242
292 294 296 299 301 303 304 305 306 306 306 306 306 306 305 305 303 301 300 298 298 297 296 293 292 291 290 288 284 280 277 273 269 267 262 259 256 255 252 251 251 248 246
291 293 295 297 299 300 301 301 302 303 303 303 304 305 305 304 303 300 295 291 293 291 289 289 289 288 288 287 285 281 277 274 270 267 265 263 261 259 256 254 253 251 248
290 292 294 296 296 297 298 298 299 300 301 301 303 303 302 301 300 299 295 291 291 289 286 286 288 287 286 285 284 282 279 276 273 270 266 264 262 261 259 257 255 253 251
287 289 291 293 294 295 296 297 298 298 299 299 300 300 299 298 298 297 294 291 288 286 284 283 283 283 282 283 281 280 280 277 275 272 269 266 264 263 260 259 257 255 254
287 289 290 291 292 293 294 294 296 296 296 297 297 297 296 295 295 293 290 288 285 283 282 281 280 279 279 279 279 279 278 276 274 272 270 268 266 265 264 262 259 256 255
288 289 290 291 291 292 292 293 294 294 294 294 294 294 293 293 292 290 288 287 284 282 280 279 278 278 277 276 276 276 275 274 273 272 270 267 265 265 265 264 260 258 258
289 290 290 290 291 291 292 293 293 293 293 293 293 292 291 290 289 287 287 286 285 283 281 280 279 277 276 275 274 274 273 272 271 270 268 267 265 263 263 263 262 260 260
290 290 290 291 292 292 292 292 293 293 293 293 292 290 289 287 287 286 286 286 284 282 280 279 279 278 276 274 274 272 271 270 268 267 265 265 265 264 262 262 261 260 259
290 290 291 290 291 292 292 293 293 292 292 292 291 289 287 286 285 286 286 285 284 282 280 279 278 278 275 273 273 272 271 269 268 266 264 264 263 263 262 262 262 260 259
290 291 291 290 290 291 292 293 293 292 291 290 289 287 286 284 284 285 285 284 283 282 281 279 279 278 276 273 273 272 271 269 268 266 264 262 263 262 262 262 261 260 258
290 291 292 292 291 291 291 292 292 291 290 289 288 286 285 283 283 284 283 282 282 282 281 279 278 277 276 274 274 272 272 270 269 267 264 262 262 262 261 261 260 259 258
289 291 292 292 292 291 291 291 290 290 289 288 287 286 284 282 283 282 280 280 281 281 280 279 278 277 276 274 273 272 271 271 269 267 264 261 261 261 260 259 259 257 256
289 290 291 292 292 292 291 290 290 289 288 287 286 284 283 281 282 281 279 280 280 280 279 278 277 275 275 273 271 270 270 270 269 267 264 262 260 260 259 259 258 257 256
290 291 291 291 292 292 291 290 289 288 287 285 284 283 281 281 281 280 278 278 279 278 278 278 276 274 273 272 271 270 271 271 270 268 265 261 260 260 259 258 257 256 255
290 290 290 291 291 291 290 289 288 288 286 285 283 281 280 281 280 279 278 278 277 277 277 277 276 274 272 271 270 270 270 269 269 268 265 262 260 259 259 257 256 255 253
289 290 290 290 290 290 290 289 287 286 285 284 283 281 280 280 279 277 277 277 275 275 275 275 274 274 273 271 269 268 268 267 267 267 264 260 260 258 259 256 255 254 252
289 290 290 290 290 289 289 288 287 286 285 284 283 281 280 279 278 277 276 275 273 273 274 274 274 273 272 270 267 266 265 265 265 264 261 258 257 257 258 256 254 253 252
289 290 290 290 290 290 289 289 287 286 284 283 282 281 279 278 278 276 275 274 272 271 271 273 272 270 270 268 266 264 264 264 263 261 261 257 255 255 257 255 254 253 251
289 289 290 290 290 290 289 289 288 286 284 283 282 280 279 278 277 275 274 273 271 269 270 270 269 268 267 267 265 262 262 262 261 260 259 257 255 254 255 254 253 253 251
Height
5844 5843 5842 5841 5839 5838 5836 5834 5832 5830 5827 5824 5822 5819 5816 5814 5811 5809 5807 5805 5803 5802 5800 5799 5798 5797 5797 5797 5796 5797 5797 5798 5799 5801 5802 5804 5805 5807 5809 5811 5814 5816 5819
5842 5841 5840 5838 5837 5835 5834 5832 5829 5827 5825 5822 5819 5817 5814 5811 5809 5807 5805 5803 5801 5800 5798 5797 5796 5795 5795 5795 5795 5795 5795 5795 5796 5798 5799 5800 5801 5803 5805 5807 5809 5811 5814
5840 5839 5838 5836 5834 5833 5831 5829 5827 5824 5822 5819 5817 5814 5811 5809 5806 5804 5802 5801 5799 5797 5796 5795 5794 5793 5793 5792 5792 5792 5792 5793 5793 5794 5795 5796 5797 5799 5800 5802 5804 5806 5808
5838 5836 5835 5833 5832 5830 5828 5826 5824 5821 5819 5816 5814 5811 5809 5806 5804 5802 5800 5798 5797 5795 5794 5793 5792 5791 5791 5790 5790 5790 5790 5790 5790 5791 5792 5793 5793 5795 5796 5797 5799 5801 5803
5835 5833 5832 5830 5829 5827 5825 5823 5820 5818 5816 5813 5811 5808 5806 5804 5801 5799 5797 5795 5794 5793 5792 5791 5790 5789 5788 5788 5787 5787 5787 5787 5787 5787 5788 5789 5789 5790 5791 5793 5794 5795 5797
5831 5830 5829 5827 5825 5823 5821 5819 5817 5814 5812 5809 5807 5805 5803 5800 5798 5796 5794 5793 5791 5790 5789 5788 5787 5786 5786 5785 5784 5784 5784 5783 5783 5784 5784 5784 5785 5786 5787 5788 5789 5790 5792
5828 5827 5825 5824 5822 5820 5817 5815 5813 5810 5808 5806 5803 5801 5799 5796 5794 5792 5790 5789 5787 5787 5786 5785 5784 5783 5782 5782 5781 5780 5780 5780 5780 5780 5780 5780 5781 5781 5782 5783 5783 5785 5786
5824 5822 5821 5819 5817 5815 5813 5811 5808 5806 5804 5801 5799 5797 5794 5792 5789 5787 5785 5784 5783 5783 5782 5781 5780 5779 5779 5778 5777 5777 5776 5776 5775 5775 5775 5776 5776 5776 5777 5778 5778 5779 5780
5819 5817 5816 5814 5812 5810 5808 5806 5803 5801 5799 5796 5794 5791 5789 5786 5784 5782 5780 5779 5778 5778 5777 5776 5776 5775 5774 5773 5773 5772 5772 5771 5771 5771 5771 5771 5771 5771 5771 5772 5772 5773 5774
5813 5812 5810 5808 5806 5804 5802 5800 5798 5795 5793 5790 5788 5785 5783 5780 5778 5776 5774 5773 5773 5772 5771 5771 5770 5769 5769 5768 5768 5767 5767 5766 5766 5765 5765 5765 5765 5765 5765 5766 5766 5767 5767
5807 5805 5804 5802 5800 5798 5796 5793 5791 5789 5786 5784 5781 5779 5776 5774 5771 5769 5768 5767 5766 5766 5765 5764 5764 5763 5762 5762 5761 5761 5761 5760 5760 5759 5759 5759 5759 5759 5759 5759 5759 5760 5761
5800 5798 5797 5795 5793 5790 5788 5786 5784 5781 5779 5776 5774 5771 5769 5767 5764 5762 5760 5759 5758 5758 5758 5757 5757 5756 5755 5755 5754 5754 5753 5753 5753 5753 5753 5752 5752 5752 5752 5752 5752 5752 5753
5792 5790 5789 5786 5784 5782 5780 5778 5775 5773 5770 5768 5766 5764 5761 5759 5756 5754 5753 5751 5750 5750 5749 5749 5748 5748 5747 5747 5746 5746 5745 5745 5745 5745 5745 5745 5745 5745 5744 5744 5745 5745 5745
5784 5782 5780 5777 5775 5773 5770 5768 5766 5763 5761 5759 5757 5754 5752 5750 5748 5746 5744 5743 5741 5740 5740 5739 5738 5738 5738 5737 5737 5737 5736 5736 5736 5736 5736 5736 5737 5737 5737 5737 5737 5737 5738
5774 5772 5770 5768 5765 5763 5761 5758 5756 5753 5751 5749 5746 5744 5742 5741 5738 5737 5735 5733 5732 5731 5730 5729 5728 5727 5727 5727 5727 5726 5726 5726 5726 5726 5726 5727 5727 5727 5728 5728 5728 5729 5729
5765 5763 5760 5758 5755 5753 5751 5748 5745 5742 5740 5737 5734 5732 5731 5729 5728 5726 5724 5722 5721 5720 5718 5718 5717 5716 5716 5715 5715 5715 5714 5714 5714 5714 5715 5715 5716 5717 5717 5718 5718 5719 5720
5755 5752 5750 5747 5745 5742 5740 5737 5734 5732 5728 5726 5723 5721 5719 5717 5716 5714 5712 5711 5709 5708 5707 5706 5705 5704 5704 5703 5703 5703 5703 5702 5702 5702 5703 5704 5704 5705 5706 5707 5707 5708 5709
5744 5741 5738 5736 5733 5730 5728 5725 5722 5720 5717 5714 5712 5709 5707 5705 5704 5702 5700 5698 5697 5696 5695 5694 5693 5692 5691 5690 5690 5690 5690 5690 5690 5690 5690 5691 5692 5693 5694 5695 5696 5697 5698
5732 5729 5726 5723 5720 5717 5714 5711 5709 5706 5703 5701 5699 5697 5694 5692 5691 5689 5687 5686 5685 5684 5682 5681 5680 5679 5678 5678 5677 5677 5677 5677 5677 5677 5677 5678 5679 5680 5681 5682 5684 5685 5686
5719 5716 5713 5710 5707 5703 5700 5697 5694 5692 5689 5687 5685 5683 5681 5679 5677 5676 5674 5673 5672 5671 5669 5668 5667 5666 5665 5665 5664 5664 5664 5664 5664 5664 5664 5665 5666 5667 5668 5670 5671 5673 5674
5706 5702 5699 5696 5692 5689 5686 5683 5680 5677 5675 5672 5671 5668 5666 5664 5663 5661 5660 5659 5657 5656 5655 5654 5653 5652 5652 5651 5651 5651 5651 5651 5651 5651 5651 5652 5653 5654 5656 5657 5659 5661 5662
5691 5688 5685 5681 5678 5675 5671 5668 5665 5662 5659 5657 5655 5653 5651 5649 5648 5646 5645 5644 5643 5642 5641 5640 5640 5639 5638 5638 5638 5638 5638 5638 5638 5638 5638 5639 5641 5642 5643 5645 5647 5649 5651
5676 5673 5669 5666 5662 5659 5656 5652 5649 5646 5644 5641 5639 5638 5636 5634 5632 5631 5630 5629 5628 5628 5627 5626 5626 5625 5625 5624 5624 5625 5625 5625 5625 5625 5626 5627 5628 5630 5631 5633 5635 5637 5639
5660 5657 5654 5650 5647 5643 5640 5637 5633 5630 5628 5626 5623 5622 5620 5619 5617 5616 5615 5614 5614 5613 5613 5612 5611 5611 5611 5611 5611 5611 5611 5611 5612 5612 5613 5615 5617 5618 5620 5621 5623 5625 5627
5645 5641 5638 5634 5631 5627 5624 5620 5617 5614 5612 5609 5607 5606 5604 5603 5601 5600 5600 5599 5599 5598 5598 5598 5597 5597 5597 5597 5597 5598 5598 5599 5599 5600 5601 5603 5605 5606 5608 5610 5612 5614 5616
5629 5626 5622 5619 5615 5611 5608 5604 5601 5598 5596 5594 5592 5590 5588 5587 5586 5585 5584 5584 5584 5584 5584 5583 5583 5583 5583 5584 5584 5585 5585 5586 5587 5588 5589 5591 5593 5595 5597 5599 5601 5602 5604